Springfield, CO

9:03 AM MST on February 21, 2018 (GMT -0700)
Springfield

Weather History for KSPD - October, 2012

Change the Weather History Date:

Sunday, October 21, 2012

  Actual Average Record
Temperature  
Mean Temperature 64 °F -  
Max Temperature 84 °F 67 °F 90 °F (2003)
Min Temperature 43 °F 37 °F 27 °F (2006)
Degree Days  
Heating Degree Days 1 13  
Month to date heating degree days 225 203  
Since 1 July heating degree days 291 293  
Cooling Degree Days 0 0  
Month to date cooling degree days 4 9  
Year to date cooling degree days 1420 1026  
Growing Degree Days 14 (Base 50)    
Moisture  
Dew Point 24 °F    
Average Humidity 29    
Maximum Humidity 48    
Minimum Humidity 9    
Precipitation  
Precipitation 0.00 in 0.05 in 0.10 in (2010)
Month to date precipitation 0.93 0.98  
Year to date precipitation 8.05  
Sea Level Pressure  
Sea Level Pressure 29.62 in    
Wind  
Wind Speed 8 mph (NNW)    
Max Wind Speed 21 mph    
Max Gust Speed 26 mph    
T = Trace of Precipitation, MM = Missing Value Source: NWS Daily Summary

Daily Weather History Graph

Daily Weather History Graph

Search for Another Location

Airport or City:

Trip Planner

Search our weather history database for the weather conditions in past years. The results will help you decide how hot, cold, wet, or windy it might be!

Date:

Astronomy

Oct. 21, 2012 Rise Set
Actual Time 7:04 AM MDT 6:04 PM MDT
Civil Twilight 6:38 AM MDT 6:31 PM MDT
Nautical Twilight 6:07 AM MDT 7:01 PM MDT
Astronomical Twilight 5:37 AM MDT 7:31 PM MDT
Moon 1:24 PM MDT No Moon Set
Length of Visible Light 11h 53m
Length of Day
11h 00m
Waxing Crescent, 46% of the Moon is Illuminated
Oct 21
Waxing Crescent
Oct 21
First Quarter
Oct 29
Full
Nov 6
Last Quarter
Nov 13
New

Hourly Weather History & Observations

Time (MDT) Temp. Windchill Dew Point Humidity Pressure Visibility Wind Dir Wind Speed Gust Speed Precip Events Conditions
12:56 AM 50.0 °F - 28.9 °F 44% 29.58 in - West 9.2 mph - N/A   Unknown
1:56 AM 51.1 °F - 25.0 °F 36% 29.57 in - West 6.9 mph - N/A   Unknown
2:56 AM 46.0 °F 42.5 °F 27.0 °F 47% 29.58 in - NW 6.9 mph - N/A   Unknown
3:56 AM 46.0 °F 41.4 °F 26.1 °F 46% 29.58 in - WSW 9.2 mph - N/A   Unknown
4:56 AM 48.9 °F - 21.9 °F 35% 29.60 in - WNW 6.9 mph - N/A   Unknown
5:56 AM 53.1 °F - 21.9 °F 30% 29.62 in - WNW 10.4 mph - N/A   Unknown
6:56 AM 54.0 °F - 21.0 °F 28% 29.64 in - WNW 10.4 mph - N/A   Unknown
7:56 AM 59.0 °F - 19.0 °F 21% 29.63 in - NW 16.1 mph - N/A   Unknown
8:56 AM 70.0 °F - 19.0 °F 14% 29.63 in - NW 17.3 mph - N/A   Unknown
9:56 AM 75.9 °F - 19.0 °F 12% 29.62 in - NNW 16.1 mph 25.3 mph N/A   Unknown
10:56 AM 78.1 °F - 19.0 °F 11% 29.62 in - North 16.1 mph - N/A   Unknown
11:56 AM 79.0 °F - 19.9 °F 11% 29.62 in - North 13.8 mph - N/A   Unknown
12:56 PM 81.0 °F - 21.0 °F 11% 29.60 in - North 12.7 mph - N/A   Unknown
1:56 PM 82.0 °F - 21.0 °F 10% 29.58 in - North 8.1 mph - N/A   Unknown
2:56 PM 82.9 °F - 19.0 °F 9% 29.58 in - NNE 5.8 mph - N/A   Unknown
3:56 PM 82.9 °F - 17.1 °F 9% 29.59 in - Calm Calm - N/A   Unknown
4:56 PM 81.0 °F - 19.0 °F 10% 29.60 in - Calm Calm - N/A   Unknown
5:56 PM 69.1 °F - 30.0 °F 23% 29.62 in - ENE 8.1 mph - N/A   Unknown
6:56 PM 59.0 °F - 30.9 °F 35% 29.67 in - ENE 4.6 mph - N/A   Unknown
7:56 PM 57.0 °F - 30.0 °F 36% 29.68 in - NNE 5.8 mph - N/A   Unknown
8:56 PM 53.1 °F - 30.9 °F 43% 29.68 in - North 3.5 mph - N/A   Unknown
9:56 PM 52.0 °F - 32.0 °F 47% 29.68 in - NE 5.8 mph - N/A   Unknown
10:56 PM 51.1 °F - 32.0 °F 48% 29.68 in - NNE 4.6 mph - N/A   Unknown
11:56 PM 51.1 °F - 32.0 °F 48% 29.67 in - Calm Calm - N/A   Unknown